Theta_e
298 297 293 293 295 294 296 297 300 304 302 299 298 298 296 294 294 294 295 295 295 296 296 298 298 298 299
293 294 293 293 294 294 295 297 297 302 301 299 298 297 295 294 293 293 293 293 293 294 295 296 296 296 297
291 294 293 292 291 292 292 291 294 299 300 298 297 297 295 294 293 293 292 291 292 293 294 293 294 295 295
291 292 292 292 292 290 288 289 289 292 294 293 294 296 296 294 293 291 290 290 292 293 293 292 292 293 294
291 291 290 289 289 290 288 288 286 286 286 288 289 289 288 291 290 291 289 290 291 292 292 292 292 292 292
292 291 292 292 292 289 287 285 283 288 286 286 287 283 284 284 289 290 290 290 290 291 291 291 291 291 292
295 294 291 292 290 288 287 286 285 286 285 283 283 282 283 285 289 289 290 289 290 290 290 290 291 291 291
296 293 292 292 291 291 289 285 284 284 283 280 282 281 281 282 287 289 288 288 289 289 289 289 289 289 289
296 296 296 295 292 288 285 284 281 282 283 282 280 280 281 280 281 288 287 287 287 287 288 288 288 288 284
292 292 293 293 293 289 286 284 282 281 282 280 280 279 277 281 280 279 279 284 285 286 286 286 287 282 280
284 284 283 283 284 284 285 286 282 281 283 280 278 279 278 277 279 278 278 278 279 280 283 284 285 285 280
283 282 282 282 282 282 282 281 282 283 283 281 276 277 272 274 275 277 277 278 278 278 279 281 283 284 284
282 281 282 282 282 281 280 280 280 281 281 281 278 278 274 270 273 276 277 277 278 277 278 278 278 278 277
282 282 282 281 280 280 278 278 278 278 280 281 280 278 272 275 274 273 274 270 276 276 277 278 278 278 278
281 280 280 280 279 279 278 278 275 275 276 279 280 279 278 274 265 271 269 269 274 275 276 275 276 277 277
281 280 279 278 277 277 277 276 275 276 274 275 274 273 273 275 277 269 270 268 272 274 274 274 274 276 277
280 279 279 277 277 276 275 275 275 274 275 275 272 268 268 268 273 279 269 272 274 273 274 273 273 275 277
Wind_Speed
2 3 4 6 6 4 5 5 5 14 13 11 9 8 5 3 3 4 7 6 7 10 11 12 12 13 14
2 2 3 5 7 7 5 5 5 11 12 10 8 6 5 4 4 5 6 5 9 10 11 10 10 13 15
4 1 2 4 4 3 5 4 4 7 12 10 8 9 8 6 6 6 5 6 9 10 9 7 11 14 16
3 3 3 2 3 6 5 1 3 3 6 7 8 9 9 9 7 6 5 6 10 10 8 9 12 15 16
3 3 4 4 10 5 6 3 2 3 4 3 2 1 3 7 5 7 6 8 9 9 9 12 14 15 17
3 4 6 5 7 7 5 4 4 3 4 3 3 3 3 3 8 8 7 8 9 9 11 13 14 16 18
7 7 7 9 8 8 5 4 3 2 3 2 3 3 3 3 6 6 8 8 8 11 14 14 15 17 18
6 6 5 9 11 7 7 5 4 3 2 3 1 3 1 2 6 7 2 5 10 12 13 16 17 16 17
6 9 11 16 12 9 6 7 3 2 2 2 1 1 1 2 3 3 3 7 8 14 15 15 16 16 10
8 9 9 12 14 6 8 7 3 2 3 3 2 1 2 1 2 2 3 5 14 12 13 14 16 5 5
8 6 6 6 5 5 4 6 4 2 4 4 2 1 1 2 2 2 0 4 4 6 10 14 17 15 7
8 5 6 5 4 6 6 6 5 4 5 4 3 3 2 2 3 2 3 4 2 5 4 11 15 17 19
7 6 5 6 6 5 7 8 7 6 4 4 3 3 2 3 3 2 5 2 4 4 6 7 9 9 11
7 7 6 5 4 2 3 2 3 3 4 5 4 3 1 3 3 5 3 3 4 6 7 9 8 7 8
8 7 7 6 4 3 2 2 3 3 2 1 1 2 4 5 2 4 3 3 4 6 7 10 9 9 9
8 8 8 6 6 3 3 2 3 2 2 1 0 2 3 3 7 2 2 3 3 6 5 6 11 9 8
8 7 7 6 8 5 3 3 2 2 1 1 1 2 2 2 3 4 2 2 4 8 5 5 9 14 10
Wind_Direction
140 168 140 158 164 156 180 175 169 183 185 190 194 191 193 200 272 305 302 319 322 323 325 324 324 324 329
156 148 157 174 162 166 168 198 170 192 194 200 207 206 213 232 256 285 296 313 315 317 318 315 327 325 322
148 157 118 156 133 150 168 177 179 191 199 210 216 215 219 237 265 278 288 313 311 311 301 316 318 320 318
137 138 131 127 140 176 186 166 154 164 183 194 213 231 223 241 245 249 264 294 307 297 299 306 314 314 313
160 148 161 151 191 176 183 134 175 171 191 189 173 187 246 266 257 228 254 294 299 289 301 310 312 310 312
160 198 186 191 175 178 143 144 206 202 170 202 152 215 220 226 234 237 267 291 287 287 307 309 307 308 309
192 202 173 181 161 166 170 158 168 152 120 204 179 216 217 240 239 273 280 288 282 292 302 308 307 309 310
202 183 177 169 179 178 156 102 73 76 110 196 137 227 232 263 290 285 246 283 303 309 314 319 314 313 312
167 169 167 167 147 126 145 149 127 176 198 134 147 272 341 313 308 194 4 326 326 327 318 318 318 318 315
106 98 113 143 147 142 152 154 123 146 192 138 146 71 321 18 323 8 11 329 333 325 324 326 324 308 292
106 90 79 74 67 71 83 147 134 115 167 111 123 105 124 320 296 285 313 308 308 304 316 322 318 318 305
117 115 101 90 77 77 77 74 60 114 125 112 117 126 106 311 265 288 264 273 280 299 299 315 315 316 312
137 128 119 118 111 85 72 77 67 73 83 79 108 109 143 207 268 287 324 299 308 304 315 318 313 314 314
133 120 117 120 117 107 93 100 93 80 67 90 113 136 208 238 225 277 236 289 310 313 309 308 304 291 283
136 135 133 129 124 105 103 97 90 104 97 81 123 204 232 211 269 248 257 253 259 292 314 306 295 288 287
138 142 142 139 131 103 92 91 106 118 134 170 17 353 347 300 203 246 273 260 280 292 283 288 295 299 286
141 141 137 133 131 127 114 121 112 126 127 104 70 95 22 314 297 311 196 262 294 304 276 270 286 292 298